User: anonymous   Login
Location: Unspecified
(0.0000°N, 0.0000°E)
Time: 10:18:58
(UTC+00:00)
Language:

STUDSAT - Orbit

View from above orbital plane
View from above orbital plane
View from above satellite
View from above satellite

Ground track
Ground track

The orbit data is extracted from the following two-line orbital elements,

1 36796U 10035B   17294.85651296  .00000473  00000-0  58825-4 0  9991
2 36796  98.0408  49.4442 0011551 288.1350  71.8607 14.87222897394172
Epoch (UTC): 21 October 2017 20:33:22
Eccentricity: 0.0011551
inclination: 98.0408°
perigee height: 598 km
apogee height: 614 km
right ascension of ascending node: 49.4442°
argument of perigee: 288.1350°
revolutions per day: 14.87222897
mean anomaly at epoch: 71.8607°
orbit number at epoch: 39417

The dashed part of the orbit path shows where the satellite is in the earth's shadow,  

DLR